Arirang-5

operational
NORAD ID: 39227 Int'l Des: 2013-042 Owner: KARI Country: KR
LEOCIRCULARRETROGRADESSO

About Arirang-5

Description loading...

Live Position

Loading 3D Globe...

Upcoming Passes

Altitude History

Altitude vs Time

uPlot chart will show altitude changes over time

Two-Line Element Set

1 39227U 13042A 26061.15415248 .00000650 00000-0 50745-4 0 9994
2 39227 97.6184 249.3421 0003885 128.9528 231.2044 15.04527208687768
Epoch: Mar 2, 2026 • Age: 30 hours

Current Status

Altitude 561.7 km
Velocity 7.58 km/s
Sub-Earth Point -24.42°S, 173.77°E
Launch Date Aug 22, 2013
Age 12.5 years
Type earth observation

Technical Details

Classification Payload
Mass 1400.00 kg
Dry Mass 1400.00 kg
Total Mass 1400.00 kg
Length 4.00 m
Diameter 2.40 m
Span 7.00 m
Shape Hex + panels
Manufacturer KARI
Bus Type Kompsat
Phase Status In Orbit
Owner/State KARI/KR

Large Constellations

Loading constellations...